ARIANE 2 DEB, 26717

Orbit data source: Space-Track

ARIANE 2 DEB, 26717 is space debris in HEO originally from a launch on Fri, 27 Jan 1989 UTC launched from the French Guiana (FRGUI). Debris objects in space refer to the collection of defunct objects orbiting the Earth. Examples of debris include non-operational satellites, rocket bodies, and fragments generated from explosions, collisions, or faulty payload assembly.

Loading next visibility...
Identifier
26717, 1989-006C
Orbit
HEO
Country
Flag of FRFR
Related business
Manufacturer
EADS/LV
Mission
Spacecraft
Bus & Motor
Unknown
Mass
Unknown
Launch date (UTC)
1989-01-27 (37 years ago)
Launch vehicle
Unknown
Launch site
French Guiana (FRGUI)
Object type
Payload
Rocket body
Debris
Shape & HBR
Unknown shape, 1.5 m
Radar Cross Section
Large (>1 m²)

Expand to show TLE details & history
Last TLE update: 21 hours ago

TLE from 21 hours ago
0 ARIANE 2 DEB
1 26717U 89006C   26207.59004744 -.00000070  00000-0  19423-3 0  9996
2 26717   7.8344 131.7449 7173601 324.8252 255.5756  2.26369905211361
Epoch: 2026-07-26T14:09Z
TLE epoch observation values (Epoch: 2026-07-26T14:09:40.098Z)
Latitude
2.09032°
Longitude
139.52661°
Altitude
30,359.753 km
Speed
2.33 km/s
True Right ascension
19h 44m 55s
True Declination
2° 05' 16"
Sunlit
Object was in daylight at epoch
Visualization orbit readout
Latitude
Unknown
Longitude
Unknown
Altitude
Unknown
Speed
Unknown
Apparent Right ascension
Unknown
Apparent Declination
Unknown
Sunlit
N/A
Visualization observer readout
Local Sidereal Time
00:02:11
Azimuth
Unknown
Elevation
Unknown
Doppler factor
Unknown
Orbital elements
Apogee altitude
35,708.344 km
Perigee altitude
548.377 km
Semi-major axis
24,506.497 km
Eccentricity
0.71736
Inclination
7.8344°
RAAN
131.7449°
Arg. of periapsis
324.8252°
True anomaly
199.54419°
Mean anomaly
255.5756°
Eccentric anomaly
226.00635°
Mean motion
0.56575 °/min
Orbital period
636.33 mins
BSTAR
0.00019423
Loading maneuver chart data...
Computing Atmospheric mass density...
Loading historical data...
Loading historical data...
Loading historical data...
Loading historical data...
Loading historical data...
Loading historical data...
Loading historical data...

Documentation

Showing up to 5 results
|